Tracking 19176 objects as of 26-May-2018
HD Live streaming from Space Station
objects crossing your sky now

FENGYUN 1C DEB

Track FENGYUN 1C DEB now!
10-day predictions


NORAD ID: 30325
Int'l Code: 1999-025AAL
Perigee: 859.7 km
Apogee: 885.0 km
Inclination: 99.0 °
Period: 102.3 minutes
Semi major axis: 7243 km
RCS: 0.0053 m2 (small)
Launch date: May 10, 1999
Source: People's Republic of China (PRC)
Launch site: Taiyaun Space Center, China (TSC)

Note: This is SATELLITE DEBRIS
aabbcc
Your satellite tracking list
Your tracking list is empty




NASA's NSSDC Master Catalog

Two Line Element Set (TLE):
1 30325U 99025AAL 18145.28508164  .00000093  00000-0  80745-4 0  9991
2 30325  99.0283 170.3575 0017463  92.8608 325.5442 14.08301318581837
Source of the keplerian elements: AFSPC